| time (UTC) | temp C | wind direction | speed KPH | gust KPH | rain 1hr cm | rain 24hr cm | rain mn cm | humidity % | barometer mb |
| 20260507042610 | 15 | 158 | 4.8 | 8.0 | 0.00 | 0.00 | 0.00 | 81 | 1009.3 |
| 20260507041553 | 15 | 158 | 6.4 | 11.3 | 0.00 | 0.00 | 0.00 | 81 | 1009.2 |
| 20260507040610 | 16 | 293 | 8.0 | 11.3 | 0.00 | 0.00 | 0.00 | 80 | 1009.3 |
| 20260507035555 | 16 | 203 | 6.4 | 8.0 | 0.00 | 0.00 | 0.00 | 80 | 1009.5 |
| 20260507034610 | 16 | 158 | 8.0 | 9.7 | 0.00 | 0.00 | 0.00 | 80 | 1009.3 |
| 20260507033553 | 16 | 203 | 6.4 | 9.7 | 0.00 | 0.00 | 0.00 | 79 | 1009.3 |
| 20260507032610 | 16 | 135 | 4.8 | 8.0 | 0.00 | 0.00 | 0.00 | 78 | 1009.4 |
| 20260507031554 | 16 | 158 | 6.4 | 8.0 | 0.00 | 0.00 | 0.00 | 78 | 1009.4 |
| 20260507030610 | 16 | 203 | 4.8 | 9.7 | 0.00 | 0.00 | 0.00 | 78 | 1009.4 |
| 20260507024613 | 16 | 158 | 4.8 | 6.4 | 0.00 | 0.00 | 0.00 | 77 | 1009.4 |
| 20260507023552 | 16 | 180 | 6.4 | 9.7 | 0.00 | 0.00 | 0.00 | 76 | 1009.0 |
| 20260507022610 | 17 | 248 | 6.4 | 9.7 | 0.00 | 0.00 | 0.00 | 75 | 1009.2 |
| 20260507021553 | 17 | 180 | 6.4 | 11.3 | 0.00 | 0.00 | 0.00 | 74 | 1009.2 |
| 20260507020610 | 17 | 158 | 6.4 | 8.0 | 0.00 | 0.00 | 0.00 | 73 | 1009.4 |
| 20260507015553 | 17 | 225 | 3.2 | 3.2 | 0.00 | 0.00 | 0.00 | 73 | 1009.5 |
| 20260507013553 | 17 | 248 | 3.2 | 6.4 | 0.00 | 0.00 | 0.00 | 73 | 1009.9 |
| 20260507012611 | 17 | 270 | 3.2 | 3.2 | 0.00 | 0.00 | 0.00 | 73 | 1009.8 |
| 20260507010610 | 17 | 203 | 4.8 | 8.0 | 0.00 | 0.00 | 0.00 | 74 | 1010.1 |
| 20260507004610 | 17 | 225 | 4.8 | 8.0 | 0.00 | 0.00 | 0.00 | 79 | 1010.1 |
| 20260507002610 | 17 | 225 | 3.2 | 6.4 | 0.00 | 0.00 | 0.00 | 79 | 1010.2 |
| 20260507000610 | 17 | 180 | 0.0 | 3.2 | 0.00 | 0.00 | 0.00 | 79 | 1010.1 |
| 20260506235554 | 17 | 180 | 1.6 | 3.2 | 0.00 | 0.00 | 0.00 | 79 | 1010.2 |
| 20260506234610 | 18 | 248 | 1.6 | 3.2 | 0.00 | 0.00 | 0.00 | 79 | 1010.1 |
| 20260506233554 | 18 | 180 | 3.2 | 3.2 | 0.00 | 0.00 | 0.00 | 79 | 1010.3 |
| 20260506232610 | 18 | 203 | 3.2 | 3.2 | 0.00 | 0.00 | 0.00 | 78 | 1010.3 |
| 20260506231554 | 18 | 203 | 3.2 | 8.0 | 0.00 | 0.00 | 0.00 | 78 | 1010.3 |
| 20260506230610 | 18 | 203 | 3.2 | 6.4 | 0.00 | 0.00 | 0.00 | 79 | 1010.3 |
| 20260506224612 | 18 | 203 | 3.2 | 6.4 | 0.00 | 0.00 | 0.00 | 79 | 1010.6 |
| 20260506223554 | 18 | 293 | 3.2 | 3.2 | 0.00 | 0.00 | 0.00 | 79 | 1010.7 |
| 20260506222610 | 18 | 248 | 3.2 | 6.4 | 0.00 | 0.00 | 0.00 | 79 | 1010.7 |
| 20260506221553 | 18 | 225 | 3.2 | 6.4 | 0.00 | 0.00 | 0.00 | 79 | 1010.7 |
| 20260506220612 | 18 | 248 | 3.2 | 8.0 | 0.00 | 0.00 | 0.00 | 78 | 1010.6 |
| 20260506213553 | 18 | 225 | 3.2 | 3.2 | 0.00 | 0.00 | 0.00 | 78 | 1010.9 |
| 20260506210610 | 18 | 270 | 3.2 | 9.7 | 0.00 | 0.00 | 0.00 | 78 | 1010.6 |
| 20260506205554 | 18 | 293 | 6.4 | 11.3 | 0.00 | 0.00 | 0.00 | 79 | 1010.5 |
| 20260506204611 | 18 | 68 | 3.2 | 8.0 | 0.00 | 0.00 | 0.00 | 78 | 1010.4 |
| 20260506203555 | 18 | 203 | 3.2 | 6.4 | 0.00 | 0.00 | 0.00 | 79 | 1010.3 |
| 20260506202611 | 18 | 68 | 4.8 | 9.7 | 0.00 | 0.00 | 0.00 | 79 | 1010.3 |
| 20260506200610 | 18 | 135 | 3.2 | 6.4 | 0.00 | 0.00 | 0.00 | 78 | 1010.5 |
| 20260506195554 | 18 | 248 | 1.6 | 6.4 | 0.00 | 0.00 | 0.00 | 78 | 1010.3 |
| 20260506194610 | 18 | 158 | 3.2 | 6.4 | 0.00 | 0.00 | 0.00 | 78 | 1010.1 |
| 20260506193554 | 18 | 23 | 3.2 | 6.4 | 0.00 | 0.00 | 0.00 | 78 | 1009.9 |
| 20260506192610 | 18 | 225 | 3.2 | 8.0 | 0.00 | 0.00 | 0.00 | 78 | 1009.8 |
| 20260506191553 | 18 | 90 | 3.2 | 6.4 | 0.00 | 0.00 | 0.00 | 79 | 1009.9 |
| 20260506190610 | 18 | 248 | 1.6 | 3.2 | 0.00 | 0.00 | 0.00 | 78 | 1009.8 |
| 20260506185555 | 18 | 315 | 3.2 | 8.0 | 0.00 | 0.00 | 0.00 | 78 | 1009.9 |
| 20260506184611 | 18 | 315 | 4.8 | 11.3 | 0.00 | 0.00 | 0.00 | 79 | 1009.6 |
| 20260506183555 | 18 | 270 | 3.2 | 6.4 | 0.00 | 0.00 | 0.00 | 78 | 1009.4 |
| 20260506181556 | 19 | 315 | 3.2 | 6.4 | 0.00 | 0.00 | 0.00 | 80 | 1009.4 |
| 20260506175554 | 18 | 293 | 6.4 | 8.0 | 0.00 | 0.00 | 0.00 | 80 | 1009.3 |
| 20260506174612 | 19 | 270 | 6.4 | 9.7 | 0.00 | 0.00 | 0.00 | 79 | 1009.3 |
| 20260506173554 | 19 | 293 | 6.4 | 9.7 | 0.00 | 0.00 | 0.00 | 78 | 1009.3 |
| 20260506172611 | 20 | 293 | 6.4 | 9.7 | 0.00 | 0.00 | 0.00 | 78 | 1009.1 |
| 20260506171555 | 19 | 293 | 6.4 | 9.7 | 0.00 | 0.00 | 0.00 | 79 | 1009.2 |
| 20260506170658 | 19 | 293 | 8.0 | 9.7 | 0.00 | 0.00 | 0.00 | 79 | 1009.2 |
| 20260506165553 | 19 | 293 | 8.0 | 12.9 | 0.00 | 0.00 | 0.00 | 79 | 1009.3 |
| 20260506164610 | 19 | 293 | 8.0 | 12.9 | 0.00 | 0.00 | 0.00 | 79 | 1009.2 |
| 20260506163722 | 19 | 315 | 8.0 | 11.3 | 0.00 | 0.00 | 0.00 | 79 | 1009.2 |
| 20260506112611 | 21 | 293 | 8.0 | 11.3 | 0.00 | 0.00 | 0.00 | 67 | 1010.0 |
| 20260506111553 | 21 | 315 | 8.0 | 11.3 | 0.00 | 0.00 | 0.00 | 64 | 1010.0 |
| 20260506110613 | 21 | 135 | 6.4 | 11.3 | 0.00 | 0.00 | 0.00 | 65 | 1010.1 |
| 20260506105554 | 21 | 315 | 8.0 | 12.9 | 0.00 | 0.00 | 0.00 | 63 | 1010.1 |
| 20260506103553 | 21 | 315 | 8.0 | 11.3 | 0.00 | 0.00 | 0.00 | 63 | 1010.2 |
| 20260506102611 | 21 | 270 | 8.0 | 11.3 | 0.00 | 0.00 | 0.00 | 61 | 1010.3 |
| 20260506101553 | 21 | 338 | 8.0 | 12.9 | 0.00 | 0.00 | 0.00 | 60 | 1010.3 |
| 20260506100611 | 21 | 338 | 8.0 | 11.3 | 0.00 | 0.00 | 0.00 | 60 | 1010.4 |
| 20260506095634 | 21 | 23 | 6.4 | 11.3 | 0.00 | 0.00 | 0.00 | 57 | 1010.3 |
| 20260506094611 | 21 | 293 | 12.9 | 25.7 | 0.00 | 0.00 | 0.00 | 54 | 1010.4 |
| 20260506093554 | 22 | 248 | 8.0 | 11.3 | 0.00 | 0.00 | 0.00 | 51 | 1010.4 |
| 20260506092611 | 22 | 90 | 3.2 | 6.4 | 0.00 | 0.00 | 0.00 | 53 | 1010.4 |
| 20260506091555 | 21 | 158 | 6.4 | 9.7 | 0.00 | 0.00 | 0.00 | 67 | 1010.3 |
| 20260506090611 | 21 | 68 | 8.0 | 12.9 | 0.00 | 0.00 | 0.00 | 68 | 1010.3 |
| 20260506085555 | 21 | 293 | 8.0 | 11.3 | 0.00 | 0.00 | 0.00 | 69 | 1010.1 |
| 20260506084611 | 21 | 90 | 8.0 | 11.3 | 0.00 | 0.00 | 0.00 | 67 | 1010.2 |
| 20260506083553 | 21 | 293 | 4.8 | 8.0 | 0.00 | 0.00 | 0.00 | 61 | 1010.1 |
| 20260506082611 | 20 | 315 | 4.8 | 8.0 | 0.00 | 0.00 | 0.00 | 56 | 1010.1 |
| 20260506081554 | 21 | 293 | 6.4 | 11.3 | 0.00 | 0.00 | 0.00 | 50 | 1010.0 |
| 20260506080611 | 21 | 293 | 6.4 | 11.3 | 0.00 | 0.00 | 0.00 | 45 | 1009.9 |
| 20260506071555 | 19 | 135 | 1.6 | 3.2 | 0.00 | 0.00 | 0.00 | 47 | 1009.6 |
| 20260506070611 | 18 | 135 | 3.2 | 6.4 | 0.00 | 0.00 | 0.00 | 48 | 1009.8 |
| 20260506061554 | 16 | 135 | 3.2 | 6.4 | 0.00 | 0.00 | 0.00 | 53 | 1009.8 |
| 20260506060611 | 16 | 158 | 4.8 | 8.0 | 0.00 | 0.00 | 0.00 | 53 | 1009.7 |
| 20260506050612 | 15 | 225 | 3.2 | 6.4 | 0.00 | 0.00 | 0.00 | 57 | 1009.0 |
| 20260506044613 | 15 | 180 | 3.2 | 6.4 | 0.00 | 0.00 | 0.00 | 56 | 1008.8 |
| 20260506043553 | 16 | 113 | 4.8 | 8.0 | 0.00 | 0.00 | 0.00 | 55 | 1008.7 |